Hourly Weather Szekesfehervar

Today, 4 August, Tuesday

Time Temperature Precipitation Wind Pressure Humidity
00:00 +20°C° 0.8 mm 2 mps 742 mmHg 88%
01:00 +21°C° 0 mm 2 mps 742 mmHg 87%
02:00 +20°C° 0.6 mm 2 mps 742 mmHg 89%
03:00 +20°C° 0.6 mm 2 mps 741 mmHg 91%
04:00 +20°C° 0.6 mm 3 mps 741 mmHg 93%
05:00 +20°C° 0.1 mm 2 mps 742 mmHg 91%
06:00 +21°C° 0.1 mm 2 mps 742 mmHg 89%
07:00 +23°C° 0 mm 2 mps 743 mmHg 88%
08:00 +24°C° 0 mm 2 mps 743 mmHg 82%
09:00 +25°C° 0 mm 2 mps 743 mmHg 76%
10:00 +26°C° 0 mm 2 mps 743 mmHg 70%
11:00 +27°C° 0 mm 2 mps 743 mmHg 66%
12:00 +28°C° 0 mm 1 mps 744 mmHg 61%
13:00 +29°C° 0 mm 1 mps 744 mmHg 56%
14:00 +28°C° 0.5 mm 2 mps 744 mmHg 58%
15:00 +28°C° 0.5 mm 3 mps 744 mmHg 60%
16:00 +28°C° 0.5 mm 4 mps 744 mmHg 62%
17:00 +25°C° 1.1 mm 5 mps 744 mmHg 71%
18:00 +22°C° 1.1 mm 6 mps 745 mmHg 79%
19:00 +18°C° 1.1 mm 7 mps 745 mmHg 88%
20:00 +17°C° 0.3 mm 7 mps 746 mmHg 88%
21:00 +17°C° 0.3 mm 7 mps 747 mmHg 89%
22:00 +16°C° 0.3 mm 6 mps 747 mmHg 89%
23:00 +16°C° 0.1 mm 7 mps 747 mmHg 89%

Tomorrow, 5 August, Wednesday

Time Temperature Precipitation Wind Pressure Humidity
00:00 +15°C° 0.1 mm 7 mps 747 mmHg 89%
01:00 +15°C° 0.1 mm 7 mps 747 mmHg 89%
02:00 +15°C° 0.5 mm 6 mps 748 mmHg 90%
03:00 +15°C° 0.5 mm 6 mps 748 mmHg 90%
04:00 +15°C° 0.5 mm 5 mps 748 mmHg 91%
05:00 +15°C° 0.2 mm 5 mps 748 mmHg 90%
06:00 +17°C° 0.2 mm 4 mps 748 mmHg 90%
07:00 +17°C° 0.2 mm 4 mps 748 mmHg 89%
08:00 +18°C° 0.3 mm 4 mps 749 mmHg 88%
09:00 +19°C° 0.3 mm 4 mps 749 mmHg 86%
10:00 +20°C° 0.3 mm 3 mps 749 mmHg 84%
11:00 +21°C° 0 mm 4 mps 749 mmHg 81%
12:00 +22°C° 0 mm 4 mps 749 mmHg 79%
13:00 +23°C° 0 mm 4 mps 749 mmHg 76%
14:00 +23°C° 0 mm 5 mps 749 mmHg 74%
15:00 +25°C° 0 mm 5 mps 749 mmHg 72%
16:00 +25°C° 0 mm 5 mps 749 mmHg 70%
17:00 +23°C° 0 mm 4 mps 749 mmHg 74%
18:00 +22°C° 0 mm 4 mps 749 mmHg 77%
19:00 +21°C° 0 mm 4 mps 749 mmHg 80%
20:00 +21°C° 0.1 mm 3 mps 749 mmHg 82%
21:00 +20°C° 0.1 mm 3 mps 750 mmHg 83%
22:00 +19°C° 0.1 mm 2 mps 750 mmHg 85%
23:00 +19°C° 0.6 mm 2 mps 750 mmHg 86%

Day after tomorrow, 6 August, Thursday

Time Temperature Precipitation Wind Pressure Humidity
00:00 +19°C° 0.6 mm 2 mps 750 mmHg 88%
01:00 +19°C° 0.6 mm 2 mps 750 mmHg 89%
02:00 +18°C° 0.5 mm 3 mps 750 mmHg 90%
03:00 +18°C° 0.5 mm 3 mps 750 mmHg 91%
04:00 +18°C° 0.5 mm 3 mps 750 mmHg 91%
05:00 +18°C° 0 mm 3 mps 751 mmHg 90%
06:00 +19°C° 0 mm 3 mps 751 mmHg 89%
07:00 +20°C° 0 mm 3 mps 751 mmHg 87%
08:00 +21°C° 0 mm 3 mps 751 mmHg 81%
09:00 +24°C° 0 mm 3 mps 752 mmHg 76%
10:00 +25°C° 0 mm 3 mps 752 mmHg 70%
11:00 +26°C° 0 mm 3 mps 752 mmHg 64%
12:00 +28°C° 0 mm 2 mps 752 mmHg 58%
13:00 +29°C° 0 mm 2 mps 752 mmHg 52%
14:00 +30°C° 0 mm 2 mps 752 mmHg 52%
15:00 +30°C° 0 mm 3 mps 751 mmHg 51%
16:00 +30°C° 0 mm 3 mps 751 mmHg 50%
17:00 +28°C° 0 mm 2 mps 751 mmHg 56%
18:00 +27°C° 0 mm 2 mps 751 mmHg 61%
19:00 +25°C° 0 mm 1 mps 751 mmHg 67%
20:00 +24°C° 0 mm 1 mps 752 mmHg 67%
21:00 +24°C° 0 mm 2 mps 752 mmHg 67%
22:00 +23°C° 0 mm 2 mps 752 mmHg 67%
23:00 +23°C° 0 mm 2 mps 752 mmHg 68%

7 August, Friday

Time Temperature Precipitation Wind Pressure Humidity
00:00 +21°C° 0 mm 2 mps 753 mmHg 69%
01:00 +21°C° 0 mm 2 mps 753 mmHg 69%
02:00 +20°C° 0 mm 2 mps 753 mmHg 72%
03:00 +20°C° 0 mm 2 mps 753 mmHg 74%
04:00 +20°C° 0 mm 2 mps 753 mmHg 76%
05:00 +21°C° 0 mm 2 mps 753 mmHg 73%
06:00 +22°C° 0 mm 3 mps 753 mmHg 70%
07:00 +24°C° 0 mm 3 mps 754 mmHg 68%
08:00 +26°C° 0 mm 3 mps 754 mmHg 61%
09:00 +28°C° 0 mm 3 mps 754 mmHg 55%
10:00 +30°C° 0 mm 3 mps 754 mmHg 48%
11:00 +31°C° 0 mm 3 mps 754 mmHg 45%
12:00 +33°C° 0 mm 3 mps 753 mmHg 41%
13:00 +33°C° 0 mm 4 mps 753 mmHg 37%
14:00 +33°C° 0 mm 3 mps 753 mmHg 38%
15:00 +33°C° 0 mm 3 mps 753 mmHg 40%
16:00 +33°C° 0 mm 3 mps 752 mmHg 41%
17:00 +30°C° 0 mm 3 mps 752 mmHg 47%
18:00 +28°C° 0 mm 2 mps 752 mmHg 52%
19:00 +26°C° 0 mm 1 mps 752 mmHg 58%
20:00 +26°C° 0 mm 1 mps 752 mmHg 59%
21:00 +25°C° 0 mm 1 mps 753 mmHg 60%
22:00 +24°C° 0 mm 1 mps 753 mmHg 62%
23:00 +24°C° 0 mm 1 mps 753 mmHg 63%

8 August, Saturday

Time Temperature Precipitation Wind Pressure Humidity
00:00 +23°C° 0 mm 1 mps 753 mmHg 64%
01:00 +23°C° 0 mm 2 mps 752 mmHg 66%
02:00 +22°C° 0 mm 1 mps 752 mmHg 68%
03:00 +22°C° 0 mm 1 mps 752 mmHg 71%
04:00 +21°C° 0 mm 1 mps 752 mmHg 74%
05:00 +23°C° 0 mm 1 mps 752 mmHg 71%
06:00 +24°C° 0 mm 1 mps 753 mmHg 67%
07:00 +25°C° 0 mm 2 mps 753 mmHg 64%
08:00 +27°C° 0 mm 2 mps 753 mmHg 59%
09:00 +29°C° 0 mm 2 mps 753 mmHg 54%
10:00 +30°C° 0 mm 2 mps 753 mmHg 49%
11:00 +31°C° 0 mm 2 mps 752 mmHg 46%
12:00 +32°C° 0 mm 2 mps 752 mmHg 42%
13:00 +34°C° 0 mm 2 mps 751 mmHg 39%
14:00 +34°C° 0 mm 2 mps 751 mmHg 40%
15:00 +32°C° 0 mm 2 mps 751 mmHg 40%
16:00 +32°C° 0 mm 2 mps 750 mmHg 41%
17:00 +30°C° 0 mm 2 mps 750 mmHg 45%
18:00 +29°C° 0 mm 2 mps 750 mmHg 49%
19:00 +27°C° 0 mm 1 mps 750 mmHg 53%
20:00 +26°C° 0 mm 1 mps 750 mmHg 54%
21:00 +26°C° 0 mm 2 mps 750 mmHg 56%
22:00 +25°C° 0 mm 2 mps 750 mmHg 57%
23:00 +24°C° 0 mm 2 mps 750 mmHg 60%

9 August, Sunday

Time Temperature Precipitation Wind Pressure Humidity
00:00 +24°C° 0 mm 2 mps 750 mmHg 63%
01:00 +24°C° 0 mm 2 mps 750 mmHg 65%
02:00 +23°C° 0 mm 1 mps 750 mmHg 68%
03:00 +22°C° 0 mm 1 mps 750 mmHg 71%
04:00 +22°C° 0 mm 1 mps 749 mmHg 74%
05:00 +23°C° 0 mm 1 mps 750 mmHg 72%
06:00 +24°C° 0 mm 1 mps 750 mmHg 69%
07:00 +25°C° 0 mm 1 mps 750 mmHg 67%
08:00 +27°C° 0 mm 1 mps 750 mmHg 63%
09:00 +28°C° 0 mm 1 mps 750 mmHg 58%
10:00 +30°C° 0 mm 1 mps 750 mmHg 53%
11:00 +31°C° 0.2 mm 2 mps 749 mmHg 50%
12:00 +31°C° 0.2 mm 2 mps 749 mmHg 46%
13:00 +32°C° 0.2 mm 2 mps 749 mmHg 43%
14:00 +32°C° 0 mm 2 mps 749 mmHg 43%
15:00 +32°C° 0 mm 2 mps 748 mmHg 42%
16:00 +32°C° 0 mm 2 mps 748 mmHg 42%
17:00 +31°C° 0 mm 2 mps 748 mmHg 48%
18:00 +29°C° 0 mm 2 mps 748 mmHg 53%
19:00 +27°C° 0 mm 1 mps 748 mmHg 58%
20:00 +26°C° 0.1 mm 1 mps 748 mmHg 62%
21:00 +25°C° 0.1 mm 1 mps 748 mmHg 66%
22:00 +24°C° 0.1 mm 1 mps 749 mmHg 70%
23:00 +24°C° 0.3 mm 1 mps 749 mmHg 73%
Show more